Project,Study,Ord_Occ,Event_Num,Cast_ID,Date_Time_UTC,Date_Time_PST,Lat_Dec,Lon_Dec,Sta_ID,Line,Sta,Depth,Pressure,PrQ,Temp1,Temp1Q,Temp2,Temp2Q,TempAve,Salt1,Salt1Q,Salt1_Corr,Salt2,Salt2Q,Salt2_Corr,SaltAve_Corr,Ox1,Ox1Q,Ox1_CruiseCorr,Ox1_StaCorr,Ox2,Ox2Q,Ox2_CruiseCorr,Ox2_StaCorr,OxAve_StaCorr,Ox1uM,Ox1uM_CruiseCorr,Ox1uM_StaCorr,Ox2uM,Ox2uM_CruiseCorr,Ox2uM_StaCorr,OxAveuM_StaCorr,FluorV,FluorQ,EstChl_CruiseCorr,EstChl_StaCorr,ISUSV,ISUSQ,EstNO3_CruiseCorr,EstNO3_StaCorr,SigThetaTS1,SigThetaTS1Q,SigThetaTS2,SigThetaTS2Q,BAT,XMiss,TransQ,pH,pHQ,SPAR,SPARQ,PAR,PARQ,PoT1,PoT2,DynHt,SVA,OxSat1,OxSat2,BTL_Depth,BTL_Temp,SaltB,OxB,OxBuM,Chl-a,Phaeo,NO3,NO2,NH4,PO4,SIL
CalCOFI,2101RL,013,,2101_013u,18-Jan-2021 06:37:45,17-Jan-2021 22:37:45,31.17836,-120.91612,093.3 080.0,093.3,080.0,519.000,523.267,,5.8375,,5.8385,,5.8380,34.3034,,34.3092,34.2973,,34.2993,34.3043,0.2683,,0.2807,0.2627,0.2757,,0.2908,0.2696,0.2662,11.667,12.4732,11.5087,11.989,13.4263,11.8127,11.6607,0.0322,,,, ,, , ,27.0282,,27.0233,,0.6742,84.4871,,,,2.0805E+00,,1.0000E-12,,5.7925,5.7935,0.9143,109.274,3.851,3.957,,,,,,,,,,,,
CalCOFI,2101RL,013,,2101_013u,18-Jan-2021 06:37:46,17-Jan-2021 22:37:46,31.17834,-120.91612,093.3 080.0,093.3,080.0,518.000,522.258,,5.8522,,5.8546,,5.8534,34.3035,,34.3093,34.2974,,34.2994,34.3044,0.2682,,0.2806,0.2626,0.2738,,0.2888,0.2676,0.2651,11.662,12.4680,11.5035,11.906,13.4207,11.7246,11.6141,0.0327,,,, ,, , ,27.0264,,27.0213,,0.6742,84.4886,,,,1.8427E+00,,1.0000E-12,,5.8073,5.8096,0.9143,109.444,3.850,3.931,,,,,,,,,,,,
CalCOFI,2101RL,013,,2101_013u,18-Jan-2021 06:37:48,17-Jan-2021 22:37:48,31.17834,-120.91612,093.3 080.0,093.3,080.0,517.000,521.248,,5.8547,,5.8555,,5.8551,34.3035,,34.3093,34.2974,,34.2994,34.3044,0.2681,,0.2805,0.2625,0.2812,,0.2967,0.2754,0.2690,11.659,12.4648,11.5003,12.230,13.4174,12.0683,11.7843,0.0329,,,, ,, , ,27.0261,,27.0212,,0.6741,84.4900,,,,1.8474E+00,,1.0000E-12,,5.8098,5.8106,0.9143,109.462,3.850,4.038,517,,34.2990,0.281,12.24,,,,,,,
CalCOFI,2101RL,013,,2101_013u,18-Jan-2021 06:37:52,17-Jan-2021 22:37:52,31.17834,-120.91615,093.3 080.0,093.3,080.0,516.000,520.239,,5.8566,,5.8564,,5.8565,34.3027,,34.3085,34.2966,,34.2986,34.3036,0.2709,,0.2834,0.2654,0.2787,,0.2940,0.2728,0.2691,11.782,12.5936,11.6299,12.118,13.5542,11.9495,11.7897,0.0325,,,, ,, , ,27.0252,,27.0204,,0.6742,84.4883,,,,1.8474E+00,,1.0000E-12,,5.8118,5.8116,0.9144,109.533,3.891,4.001,,,,,,,,,,,,
CalCOFI,2101RL,013,,2101_013u,18-Jan-2021 06:37:57,17-Jan-2021 22:37:57,31.17832,-120.91618,093.3 080.0,093.3,080.0,515.000,519.229,,5.8561,,5.8570,,5.8566,34.3002,,34.3060,34.2939,,34.2959,34.3010,0.2807,,0.2937,0.2757,0.2838,,0.2994,0.2782,0.2770,12.206,13.0374,12.0766,12.341,14.0257,12.1860,12.1313,0.0328,,,, ,, , ,27.0233,,27.0183,,0.6741,84.4901,,,,1.8474E+00,,1.0000E-12,,5.8114,5.8123,0.9146,109.698,4.031,4.075,,,,,,,,,,,,
CalCOFI,2101RL,013,,2101_013u,18-Jan-2021 06:37:58,17-Jan-2021 22:37:58,31.17832,-120.91618,093.3 080.0,093.3,080.0,514.000,518.220,,5.8485,,5.8519,,5.8502,34.2979,,34.3037,34.2926,,34.2946,34.2992,0.2835,,0.2966,0.2787,0.2892,,0.3052,0.2839,0.2813,12.327,13.1641,12.2040,12.576,14.1602,12.4352,12.3196,0.0324,,,, ,, , ,27.0224,,27.0178,,0.6741,84.4900,,,,1.8474E+00,,1.0000E-12,,5.8039,5.8073,0.9146,109.760,4.070,4.152,,,,,,,,,,,,
CalCOFI,2101RL,013,,2101_013u,18-Jan-2021 06:37:59,17-Jan-2021 22:37:59,31.17831,-120.91619,093.3 080.0,093.3,080.0,513.000,517.210,,5.8374,,5.8414,,5.8394,34.2928,,34.2986,34.2881,,34.2901,34.2944,0.2901,,0.3035,0.2856,0.2841,,0.2997,0.2785,0.2821,12.614,13.4645,12.5064,12.352,14.4794,12.1977,12.3521,0.0319,,,, ,, , ,27.0197,,27.0155,,0.6743,84.4867,,,,1.8474E+00,,1.0000E-12,,5.7929,5.7970,0.9146,109.983,4.163,4.077,,,,,,,,,,,,
CalCOFI,2101RL,013,,2101_013u,18-Jan-2021 06:38:00,17-Jan-2021 22:38:00,31.17830,-120.91620,093.3 080.0,093.3,080.0,512.000,516.201,,5.8351,,5.8365,,5.8358,34.2916,,34.2974,34.2858,,34.2878,34.2926,0.2887,,0.3021,0.2842,0.2993,,0.3159,0.2946,0.2894,12.555,13.4028,12.4442,13.014,14.4138,12.8998,12.6720,0.0323,,,, ,, , ,27.0191,,27.0143,,0.6741,84.4900,,,,1.8474E+00,,1.0000E-12,,5.7908,5.7922,0.9146,110.028,4.143,4.295,,,,,,,,,,,,
CalCOFI,2101RL,013,,2101_013u,18-Jan-2021 06:38:01,17-Jan-2021 22:38:01,31.17830,-120.91620,093.3 080.0,093.3,080.0,511.000,515.191,,5.8355,,5.8362,,5.8359,34.2905,,34.2963,34.2847,,34.2867,34.2915,0.2851,,0.2983,0.2804,0.2927,,0.3089,0.2876,0.2840,12.396,13.2363,12.2767,12.729,14.2370,12.5975,12.4371,0.0328,,,, ,, , ,27.0182,,27.0135,,0.6742,84.4877,,,,1.8474E+00,,1.0000E-12,,5.7913,5.7920,0.9146,110.103,4.091,4.201,,,,,,,,,,,,
CalCOFI,2101RL,013,,2101_013u,18-Jan-2021 06:38:01,17-Jan-2021 22:38:01,31.17830,-120.91620,093.3 080.0,093.3,080.0,510.000,514.182,,5.8411,,5.8400,,5.8406,34.2899,,34.2957,34.2837,,34.2857,34.2907,0.2877,,0.3010,0.2831,0.2976,,0.3141,0.2928,0.2880,12.510,13.3557,12.3968,12.942,14.3637,12.8234,12.6101,0.0320,,,, ,, , ,27.0169,,27.0122,,0.6742,84.4876,,,,1.8474E+00,,1.0000E-12,,5.7969,5.7958,0.9146,110.209,4.129,4.272,,,,,,,,,,,,
CalCOFI,2101RL,013,,2101_013u,18-Jan-2021 06:38:02,17-Jan-2021 22:38:02,31.17832,-120.91622,093.3 080.0,093.3,080.0,509.000,513.172,,5.8600,,5.8609,,5.8605,34.2911,,34.2969,34.2853,,34.2873,34.2921,0.2886,,0.3019,0.2840,0.2934,,0.3096,0.2884,0.2862,12.550,13.3975,12.4390,12.757,14.4082,12.6272,12.5331,0.0339,,,, ,, , ,27.0156,,27.0109,,0.6741,84.4900,,,,1.8474E+00,,1.0000E-12,,5.8158,5.8168,0.9146,110.349,4.144,4.213,,,,,,,,,,,,
CalCOFI,2101RL,013,,2101_013u,18-Jan-2021 06:38:03,17-Jan-2021 22:38:03,31.17832,-120.91622,093.3 080.0,093.3,080.0,508.000,512.163,,5.8806,,5.8863,,5.8835,34.2931,,34.2989,34.2874,,34.2894,34.2942,0.2886,,0.3019,0.2840,0.2905,,0.3065,0.2853,0.2847,12.552,13.3996,12.4411,12.632,14.4104,12.4946,12.4679,0.0326,,,, ,, , ,27.0146,,27.0094,,0.6741,84.4900,,,,1.8474E+00,,1.0000E-12,,5.8364,5.8421,0.9146,110.450,4.147,4.173,,,,,,,,,,,,
CalCOFI,2101RL,013,,2101_013u,18-Jan-2021 06:38:04,17-Jan-2021 22:38:04,31.17832,-120.91622,093.3 080.0,093.3,080.0,507.000,511.153,,5.8964,,5.9015,,5.8990,34.2945,,34.3003,34.2885,,34.2905,34.2954,0.2842,,0.2973,0.2794,0.2903,,0.3063,0.2851,0.2823,12.357,13.1955,12.2356,12.624,14.1936,12.4862,12.3609,0.0330,,,, ,, , ,27.0137,,27.0083,,0.6747,84.4779,,,,1.8474E+00,,1.0000E-12,,5.8523,5.8574,0.9146,110.544,4.084,4.172,,,,,,,,,,,,
CalCOFI,2101RL,013,,2101_013u,18-Jan-2021 06:38:05,17-Jan-2021 22:38:05,31.17832,-120.91622,093.3 080.0,093.3,080.0,506.000,510.144,,5.9062,,5.9028,,5.9045,34.2943,,34.3001,34.2882,,34.2902,34.2952,0.2878,,0.3011,0.2832,0.2902,,0.3062,0.2850,0.2841,12.513,13.3588,12.4000,12.622,14.3671,12.4840,12.4420,0.0320,,,, ,, , ,27.0123,,27.0079,,0.6741,84.4894,,,,1.8474E+00,,1.0000E-12,,5.8621,5.8587,0.9146,110.669,4.137,4.172,,,,,,,,,,,,
CalCOFI,2101RL,013,,2101_013u,18-Jan-2021 06:38:06,17-Jan-2021 22:38:06,31.17830,-120.91624,093.3 080.0,093.3,080.0,505.000,509.135,,5.9023,,5.9051,,5.9037,34.2946,,34.3004,34.2883,,34.2903,34.2954,0.2879,,0.3012,0.2833,0.3006,,0.3173,0.2960,0.2897,12.521,13.3672,12.4084,13.071,14.3760,12.9602,12.6843,0.0325,,,, ,, , ,27.0131,,27.0078,,0.6741,84.4900,,,,1.8474E+00,,1.0000E-12,,5.8583,5.8611,0.9146,110.583,4.139,4.321,,,,,,,,,,,,
CalCOFI,2101RL,013,,2101_013u,18-Jan-2021 06:38:07,17-Jan-2021 22:38:07,31.17830,-120.91624,093.3 080.0,093.3,080.0,504.000,508.125,,5.8929,,5.9019,,5.8974,34.2942,,34.3000,34.2873,,34.2893,34.2947,0.2954,,0.3091,0.2912,0.2970,,0.3134,0.2922,0.2917,12.846,13.7074,12.7508,12.914,14.7374,12.7937,12.7723,0.0323,,,, ,, , ,27.0139,,27.0073,,0.6743,84.4851,,,,1.8474E+00,,1.0000E-12,,5.8490,5.8581,0.9146,110.479,4.245,4.268,,,,,,,,,,,,
CalCOFI,2101RL,013,,2101_013u,18-Jan-2021 06:38:08,17-Jan-2021 22:38:08,31.17830,-120.91624,093.3 080.0,093.3,080.0,503.000,507.116,,5.9065,,5.9059,,5.9062,34.2901,,34.2959,34.2845,,34.2865,34.2912,0.2905,,0.3039,0.2860,0.2944,,0.3107,0.2894,0.2877,12.632,13.4834,12.5253,12.802,14.4994,12.6749,12.6001,0.0318,,,, ,, , ,27.0090,,27.0046,,0.6741,84.4900,,,,1.8474E+00,,1.0000E-12,,5.8627,5.8621,0.9146,110.944,4.176,4.232,,,,,,,,,,,,
CalCOFI,2101RL,013,,2101_013u,18-Jan-2021 06:38:09,17-Jan-2021 22:38:09,31.17830,-120.91626,093.3 080.0,093.3,080.0,502.000,506.106,,5.9140,,5.9128,,5.9134,34.2895,,34.2953,34.2835,,34.2855,34.2904,0.2898,,0.3032,0.2853,0.2987,,0.3152,0.2940,0.2897,12.602,13.4520,12.4937,12.989,14.4660,12.8733,12.6835,0.0317,,,, ,, , ,27.0075,,27.0029,,0.6741,84.4900,,,,1.8474E+00,,1.0000E-12,,5.8702,5.8691,0.9146,111.078,4.167,4.294,,,,,,,,,,,,
CalCOFI,2101RL,013,,2101_013u,18-Jan-2021 06:38:10,17-Jan-2021 22:38:10,31.17830,-120.91626,093.3 080.0,093.3,080.0,501.000,505.097,,5.9215,,5.9205,,5.9210,34.2897,,34.2955,34.2839,,34.2859,34.2907,0.2907,,0.3041,0.2863,0.2999,,0.3165,0.2953,0.2908,12.641,13.4928,12.5348,13.043,14.5094,12.9305,12.7327,0.0317,,,, ,, , ,27.0067,,27.0023,,0.6744,84.4839,,,,1.8474E+00,,1.0000E-12,,5.8778,5.8769,0.9146,111.146,4.180,4.313,,,,,,,,,,,,
CalCOFI,2101RL,013,,2101_013u,18-Jan-2021 06:38:10,17-Jan-2021 22:38:10,31.17830,-120.91626,093.3 080.0,093.3,080.0,500.000,504.088,,5.9310,,5.9303,,5.9307,34.2903,,34.2961,34.2843,,34.2863,34.2912,0.2955,,0.3092,0.2913,0.3040,,0.3209,0.2996,0.2955,12.848,13.7095,12.7529,13.218,14.7396,13.1161,12.9345,0.0323,,,, ,, , ,27.0061,,27.0014,,0.6743,84.4853,,,,1.8474E+00,,1.0000E-12,,5.8874,5.8867,0.9146,111.208,4.250,4.372,,,,,,,,,,,,
CalCOFI,2101RL,013,,2101_013u,18-Jan-2021 06:38:11,17-Jan-2021 22:38:11,31.17830,-120.91626,093.3 080.0,093.3,080.0,499.000,503.078,,5.9417,,5.9438,,5.9428,34.2911,,34.2969,34.2853,,34.2873,34.2921,0.2965,,0.3102,0.2924,0.3077,,0.3248,0.3035,0.2980,12.894,13.7576,12.8013,13.379,14.7907,13.2869,13.0441,0.0326,,,, ,, , ,27.0053,,27.0004,,0.6741,84.4900,,,,1.8474E+00,,1.0000E-12,,5.8982,5.9002,0.9146,111.276,4.266,4.426,,,,,,,,,,,,
CalCOFI,2101RL,013,,2101_013u,18-Jan-2021 06:38:12,17-Jan-2021 22:38:12,31.17830,-120.91626,093.3 080.0,093.3,080.0,498.000,502.069,,5.9488,,5.9514,,5.9501,34.2924,,34.2982,34.2863,,34.2883,34.2933,0.2881,,0.3014,0.2835,0.3048,,0.3217,0.3005,0.2920,12.526,13.3724,12.4137,13.255,14.3815,13.1554,12.7846,0.0320,,,, ,, , ,27.0054,,27.0002,,0.6741,84.4900,,,,2.5155E+00,,1.0000E-12,,5.9053,5.9079,0.9146,111.264,4.145,4.386,,,,,,,,,,,,
CalCOFI,2101RL,013,,2101_013u,18-Jan-2021 06:38:13,17-Jan-2021 22:38:13,31.17830,-120.91626,093.3 080.0,093.3,080.0,497.000,501.059,,5.9541,,5.9520,,5.9531,34.2928,,34.2986,34.2865,,34.2885,34.2936,0.2953,,0.3090,0.2911,0.2959,,0.3123,0.2910,0.2911,12.840,13.7011,12.7445,12.868,14.7307,12.7449,12.7447,0.0324,,,, ,, , ,27.0050,,27.0003,,0.6741,84.4900,,,,2.3116E+00,,1.0000E-12,,5.9107,5.9086,0.9146,111.290,4.249,4.258,,,,,,,,,,,,
CalCOFI,2101RL,013,,2101_013u,18-Jan-2021 06:38:14,17-Jan-2021 22:38:14,31.17830,-120.91626,093.3 080.0,093.3,080.0,496.000,500.050,,5.9539,,5.9426,,5.9483,34.2923,,34.2981,34.2871,,34.2891,34.2936,0.2961,,0.3098,0.2919,0.3011,,0.3178,0.2965,0.2942,12.876,13.7388,12.7824,13.094,14.7707,12.9846,12.8835,0.0325,,,, ,, , ,27.0047,,27.0020,,0.6743,84.4854,,,,2.7013E+00,,1.0000E-12,,5.9106,5.8993,0.9146,111.311,4.261,4.332,,,,,,,,,,,,
CalCOFI,2101RL,013,,2101_013u,18-Jan-2021 06:38:15,17-Jan-2021 22:38:15,31.17829,-120.91626,093.3 080.0,093.3,080.0,495.000,499.041,,5.9473,,5.9507,,5.9490,34.2899,,34.2957,34.2847,,34.2867,34.2912,0.2996,,0.3135,0.2956,0.3082,,0.3253,0.3041,0.2999,13.029,13.8990,12.9436,13.403,14.9409,13.3123,13.1280,0.0322,,,, ,, , ,27.0036,,26.9991,,0.6742,84.4889,,,,1.8345E+00,,1.0000E-12,,5.9041,5.9075,0.9146,111.392,4.311,4.435,,,,,,,,,,,,
CalCOFI,2101RL,013,,2101_013u,18-Jan-2021 06:38:16,17-Jan-2021 22:38:16,31.17828,-120.91626,093.3 080.0,093.3,080.0,494.000,498.031,,5.9449,,5.9456,,5.9453,34.2884,,34.2942,34.2830,,34.2850,34.2896,0.3005,,0.3144,0.2966,0.3103,,0.3276,0.3063,0.3015,13.068,13.9398,12.9847,13.492,14.9842,13.4067,13.1957,0.0334,,,, ,, , ,27.0027,,26.9983,,0.6748,84.4767,,,,1.8474E+00,,1.0000E-12,,5.9018,5.9025,0.9146,111.454,4.324,4.464,,,,,,,,,,,,
CalCOFI,2101RL,013,,2101_013u,18-Jan-2021 06:38:16,17-Jan-2021 22:38:16,31.17828,-120.91626,093.3 080.0,093.3,080.0,493.000,497.022,,5.9442,,5.9448,,5.9445,34.2869,,34.2927,34.2814,,34.2834,34.2881,0.3006,,0.3145,0.2967,0.3106,,0.3279,0.3066,0.3017,13.075,13.9471,12.9920,13.505,14.9920,13.4205,13.2063,0.0328,,,, ,, , ,27.0016,,26.9972,,0.6741,84.4898,,,,1.8474E+00,,1.0000E-12,,5.9012,5.9017,0.9146,111.544,4.326,4.468,,,,,,,,,,,,
CalCOFI,2101RL,013,,2101_013u,18-Jan-2021 06:38:17,17-Jan-2021 22:38:17,31.17828,-120.91626,093.3 080.0,093.3,080.0,492.000,496.013,,5.9470,,5.9467,,5.9469,34.2858,,34.2916,34.2799,,34.2819,34.2868,0.3034,,0.3174,0.2996,0.3075,,0.3246,0.3033,0.3015,13.193,14.0706,13.1163,13.372,15.1232,13.2795,13.1979,0.0327,,,, ,, , ,27.0004,,26.9957,,0.6741,84.4900,,,,1.8474E+00,,1.0000E-12,,5.9040,5.9038,0.9146,111.652,4.365,4.424,,,,,,,,,,,,
CalCOFI,2101RL,013,,2101_013u,18-Jan-2021 06:38:18,17-Jan-2021 22:38:18,31.17828,-120.91626,093.3 080.0,093.3,080.0,491.000,495.003,,5.9564,,5.9554,,5.9559,34.2864,,34.2922,34.2800,,34.2820,34.2871,0.3045,,0.3186,0.3008,0.3050,,0.3219,0.3007,0.3008,13.242,14.1219,13.1680,13.262,15.1777,13.1628,13.1654,0.0318,,,, ,, , ,26.9996,,26.9947,,0.6741,84.4900,,,,2.6622E+00,,1.0000E-12,,5.9135,5.9125,0.9146,111.717,4.382,4.389,,,,,,,,,,,,
CalCOFI,2101RL,013,,2101_013u,18-Jan-2021 06:38:19,17-Jan-2021 22:38:19,31.17826,-120.91628,093.3 080.0,093.3,080.0,490.000,493.994,,5.9690,,5.9651,,5.9671,34.2872,,34.2930,34.2810,,34.2830,34.2880,0.3023,,0.3163,0.2985,0.3127,,0.3301,0.3088,0.3037,13.148,14.0235,13.0689,13.600,15.0732,13.5213,13.2951,0.0328,,,, ,, , ,26.9987,,26.9942,,0.6741,84.4900,,,,2.5167E+00,,1.0000E-12,,5.9261,5.9223,0.9146,111.803,4.353,4.502,,,,,,,,,,,,
CalCOFI,2101RL,013,,2101_013u,18-Jan-2021 06:38:20,17-Jan-2021 22:38:20,31.17826,-120.91628,093.3 080.0,093.3,080.0,489.000,492.984,,5.9689,,5.9686,,5.9688,34.2872,,34.2930,34.2818,,34.2838,34.2884,0.3083,,0.3226,0.3048,0.3179,,0.3356,0.3143,0.3096,13.408,14.2957,13.3428,13.824,15.3623,13.7589,13.5509,0.0330,,,, ,, , ,26.9987,,26.9944,,0.6741,84.4900,,,,2.3560E+00,,1.0000E-12,,5.9261,5.9258,0.9146,111.791,4.439,4.576,,,,,,,,,,,,
CalCOFI,2101RL,013,,2101_013u,18-Jan-2021 06:38:21,17-Jan-2021 22:38:21,31.17826,-120.91628,093.3 080.0,093.3,080.0,488.000,491.975,,5.9807,,5.9814,,5.9811,34.2851,,34.2909,34.2801,,34.2821,34.2865,0.3127,,0.3272,0.3094,0.3042,,0.3211,0.2998,0.3046,13.599,14.4956,13.5440,13.229,15.5747,13.1278,13.3359,0.0323,,,, ,, , ,26.9955,,26.9915,,0.6741,84.4900,,,,2.4638E+00,,1.0000E-12,,5.9380,5.9387,0.9146,112.090,4.503,4.381,,,,,,,,,,,,
CalCOFI,2101RL,013,,2101_013u,18-Jan-2021 06:38:22,17-Jan-2021 22:38:22,31.17823,-120.91630,093.3 080.0,093.3,080.0,487.000,490.966,,5.9849,,5.9840,,5.9845,34.2808,,34.2866,34.2767,,34.2787,34.2827,0.3155,,0.3301,0.3124,0.3207,,0.3386,0.3173,0.3149,13.720,14.6223,13.6715,13.944,15.7093,13.8861,13.7788,0.0325,,,, ,, , ,26.9916,,26.9885,,0.6741,84.4900,,,,2.2662E+00,,1.0000E-12,,5.9422,5.9414,0.9146,112.448,4.543,4.617,,,,,,,,,,,,
CalCOFI,2101RL,013,,2101_013u,18-Jan-2021 06:38:23,17-Jan-2021 22:38:23,31.17822,-120.91630,093.3 080.0,093.3,080.0,486.000,489.956,,5.9911,,5.9870,,5.9891,34.2799,,34.2857,34.2745,,34.2765,34.2811,0.3194,,0.3342,0.3165,0.3254,,0.3436,0.3223,0.3194,13.888,14.7982,13.8485,14.149,15.8961,14.1035,13.9760,0.0329,,,, ,, , ,26.9901,,26.9864,,0.6741,84.4900,,,,1.9389E+00,,1.0000E-12,,5.9485,5.9444,0.9146,112.580,4.600,4.685,,,,,,,,,,,,
CalCOFI,2101RL,013,,2101_013u,18-Jan-2021 06:38:24,17-Jan-2021 22:38:24,31.17822,-120.91630,093.3 080.0,093.3,080.0,485.000,488.947,,5.9979,,5.9974,,5.9977,34.2795,,34.2853,34.2740,,34.2760,34.2807,0.3208,,0.3356,0.3179,0.3177,,0.3354,0.3141,0.3160,13.949,14.8620,13.9128,13.818,15.9639,13.7525,13.8327,0.0329,,,, ,, , ,26.9889,,26.9847,,0.6743,84.4865,,,,2.4939E+00,,1.0000E-12,,5.9555,5.9549,0.9146,112.688,4.620,4.577,,,,,,,,,,,,
CalCOFI,2101RL,013,,2101_013u,18-Jan-2021 06:38:25,17-Jan-2021 22:38:25,31.17822,-120.91630,093.3 080.0,093.3,080.0,484.000,487.938,,5.9994,,6.0062,,6.0028,34.2799,,34.2857,34.2735,,34.2755,34.2806,0.3172,,0.3319,0.3141,0.3260,,0.3442,0.3229,0.3185,13.796,14.7019,13.7516,14.176,15.7938,14.1322,13.9419,0.0322,,,, ,, , ,26.9891,,26.9831,,0.6741,84.4900,,,,1.9388E+00,,1.0000E-12,,5.9570,5.9638,0.9146,112.662,4.570,4.697,,,,,,,,,,,,
CalCOFI,2101RL,013,,2101_013u,18-Jan-2021 06:38:26,17-Jan-2021 22:38:26,31.17822,-120.91632,093.3 080.0,093.3,080.0,483.000,486.928,,6.0119,,6.0128,,6.0124,34.2797,,34.2855,34.2734,,34.2754,34.2805,0.3174,,0.3321,0.3144,0.3281,,0.3465,0.3251,0.3198,13.804,14.7102,13.7600,14.268,15.8027,14.2298,13.9949,0.0334,,,, ,, , ,26.9873,,26.9822,,0.6741,84.4900,,,,2.3667E+00,,1.0000E-12,,5.9695,5.9704,0.9146,112.827,4.574,4.727,,,,,,,,,,,,
CalCOFI,2101RL,013,,2101_013u,18-Jan-2021 06:38:27,17-Jan-2021 22:38:27,31.17822,-120.91632,093.3 080.0,093.3,080.0,482.000,485.919,,6.0113,,6.0148,,6.0131,34.2799,,34.2857,34.2744,,34.2764,34.2811,0.3250,,0.3400,0.3224,0.3323,,0.3509,0.3296,0.3260,14.131,15.0525,14.1045,14.452,16.1663,14.4249,14.2647,0.0328,,,, ,, , ,26.9875,,26.9828,,0.6747,84.4775,,,,2.1781E+00,,1.0000E-12,,5.9691,5.9725,0.9146,112.793,4.682,4.789,,,,,,,,,,,,
CalCOFI,2101RL,013,,2101_013u,18-Jan-2021 06:38:28,17-Jan-2021 22:38:28,31.17822,-120.91632,093.3 080.0,093.3,080.0,481.000,484.910,,6.0216,,6.0243,,6.0230,34.2789,,34.2847,34.2726,,34.2746,34.2797,0.3285,,0.3437,0.3260,0.3285,,0.3469,0.3256,0.3258,14.285,15.2137,14.2667,14.287,16.3376,14.2499,14.2583,0.0331,,,, ,, , ,26.9854,,26.9801,,0.6749,84.4752,,,,1.8365E+00,,1.0000E-12,,5.9794,5.9821,0.9146,112.990,4.734,4.735,,,,,,,,,,,,
CalCOFI,2101RL,013,,2101_013u,18-Jan-2021 06:38:29,17-Jan-2021 22:38:29,31.17820,-120.91634,093.3 080.0,093.3,080.0,480.000,483.901,,6.0346,,6.0348,,6.0347,34.2756,,34.2814,34.2698,,34.2718,34.2766,0.3309,,0.3462,0.3286,0.3370,,0.3559,0.3346,0.3316,14.389,15.3226,14.3763,14.655,16.4532,14.6402,14.5083,0.0317,,,, ,, , ,26.9812,,26.9766,,0.6744,84.4846,,,,2.3970E+00,,1.0000E-12,,5.9924,5.9927,0.9146,113.387,4.770,4.858,,,,,,,,,,,,
CalCOFI,2101RL,013,,2101_013u,18-Jan-2021 06:38:30,17-Jan-2021 22:38:30,31.17820,-120.91634,093.3 080.0,093.3,080.0,479.000,482.891,,6.0409,,6.0406,,6.0408,34.2740,,34.2798,34.2685,,34.2705,34.2752,0.3330,,0.3484,0.3308,0.3383,,0.3573,0.3360,0.3334,14.479,15.4168,14.4711,14.713,16.5533,14.7017,14.5864,0.0324,,,, ,, , ,26.9791,,26.9748,,0.6746,84.4811,,,,1.8426E+00,,1.0000E-12,,5.9988,5.9985,0.9146,113.579,4.801,4.878,,,,,,,,,,,,
CalCOFI,2101RL,013,,2101_013u,18-Jan-2021 06:38:30,17-Jan-2021 22:38:30,31.17820,-120.91634,093.3 080.0,093.3,080.0,478.000,481.882,,6.0441,,6.0483,,6.0462,34.2741,,34.2799,34.2679,,34.2699,34.2749,0.3293,,0.3445,0.3269,0.3311,,0.3497,0.3283,0.3276,14.321,15.2514,14.3047,14.400,16.3776,14.3698,14.3373,0.0324,,,, ,, , ,26.9788,,26.9733,,0.6753,84.4665,,,,2.3703E+00,,1.0000E-12,,6.0020,6.0063,0.9146,113.595,4.749,4.775,,,,,,,,,,,,
CalCOFI,2101RL,013,,2101_013u,18-Jan-2021 06:38:31,17-Jan-2021 22:38:31,31.17820,-120.91634,093.3 080.0,093.3,080.0,477.000,480.873,,6.0574,,6.0574,,6.0574,34.2749,,34.2807,34.2684,,34.2704,34.2756,0.3269,,0.3420,0.3244,0.3278,,0.3462,0.3248,0.3246,14.216,15.1415,14.1940,14.255,16.2608,14.2160,14.2050,0.0320,,,, ,, , ,26.9777,,26.9726,,0.6753,84.4664,,,,1.8466E+00,,1.0000E-12,,6.0154,6.0154,0.9146,113.699,4.715,4.728,,,,,,,,,,,,
CalCOFI,2101RL,013,,2101_013u,18-Jan-2021 06:38:31,17-Jan-2021 22:38:31,31.17820,-120.91634,093.3 080.0,093.3,080.0,476.000,479.863,,6.0751,,6.0801,,6.0776,34.2764,,34.2822,34.2705,,34.2725,34.2774,0.3246,,0.3396,0.3219,0.3286,,0.3470,0.3257,0.3238,14.118,15.0389,14.0908,14.289,16.1518,14.2520,14.1714,0.0323,,,, ,, , ,26.9766,,26.9714,,0.6751,84.4708,,,,2.3052E+00,,1.0000E-12,,6.0332,6.0381,0.9146,113.807,4.685,4.742,,,,,,,,,,,,
CalCOFI,2101RL,013,,2101_013u,18-Jan-2021 06:38:32,17-Jan-2021 22:38:32,31.17822,-120.91634,093.3 080.0,093.3,080.0,475.000,478.854,,6.0915,,6.0972,,6.0944,34.2783,,34.2841,34.2719,,34.2739,34.2790,0.3236,,0.3386,0.3209,0.3354,,0.3542,0.3329,0.3269,14.072,14.9908,14.0423,14.584,16.1007,14.5649,14.3036,0.0318,,,, ,, , ,26.9761,,26.9703,,0.6751,84.4701,,,,3.1024E+00,,1.0000E-12,,6.0496,6.0553,0.9146,113.863,4.671,4.842,,,,,,,,,,,,
CalCOFI,2101RL,013,,2101_013u,18-Jan-2021 06:38:33,17-Jan-2021 22:38:33,31.17822,-120.91634,093.3 080.0,093.3,080.0,474.000,477.845,,6.1107,,6.1070,,6.1089,34.2797,,34.2855,34.2730,,34.2750,34.2803,0.3234,,0.3384,0.3207,0.3335,,0.3522,0.3309,0.3258,14.065,14.9834,14.0350,14.502,16.0929,14.4779,14.2565,0.0323,,,, ,, , ,26.9747,,26.9699,,0.6749,84.4735,,,,2.2601E+00,,1.0000E-12,,6.0688,6.0651,0.9146,113.999,4.671,4.815,,,,,,,,,,,,
CalCOFI,2101RL,013,,2101_013u,18-Jan-2021 06:38:34,17-Jan-2021 22:38:34,31.17822,-120.91634,093.3 080.0,093.3,080.0,473.000,476.836,,6.1178,,6.1131,,6.1155,34.2808,,34.2866,34.2738,,34.2758,34.2812,0.3173,,0.3320,0.3143,0.3266,,0.3449,0.3236,0.3190,13.799,14.7050,13.7547,14.204,15.7971,14.1619,13.9583,0.0329,,,, ,, , ,26.9747,,26.9698,,0.6753,84.4673,,,,2.5588E+00,,1.0000E-12,,6.0760,6.0713,0.9146,114.001,4.584,4.718,,,,,,,,,,,,
CalCOFI,2101RL,013,,2101_013u,18-Jan-2021 06:38:35,17-Jan-2021 22:38:35,31.17821,-120.91635,093.3 080.0,093.3,080.0,472.000,475.826,,6.1333,,6.1240,,6.1287,34.2826,,34.2884,34.2744,,34.2764,34.2824,0.3196,,0.3344,0.3167,0.3311,,0.3497,0.3283,0.3225,13.900,14.8107,13.8611,14.397,15.9094,14.3666,14.1139,0.0324,,,, ,, , ,26.9741,,26.9688,,0.6753,84.4664,,,,2.5401E+00,,1.0000E-12,,6.0915,6.0822,0.9146,114.056,4.619,4.783,,,,,,,,,,,,
CalCOFI,2101RL,013,,2101_013u,18-Jan-2021 06:38:36,17-Jan-2021 22:38:36,31.17820,-120.91636,093.3 080.0,093.3,080.0,471.000,474.817,,6.1434,,6.1389,,6.1412,34.2836,,34.2894,34.2768,,34.2788,34.2841,0.3209,,0.3358,0.3180,0.3290,,0.3474,0.3261,0.3221,13.954,14.8672,13.9180,14.308,15.9695,14.2722,14.0951,0.0323,,,, ,, , ,26.9736,,26.9688,,0.6753,84.4664,,,,3.2540E+00,,1.0000E-12,,6.1016,6.0972,0.9146,114.100,4.638,4.755,,,,,,,,,,,,
CalCOFI,2101RL,013,,2101_013u,18-Jan-2021 06:38:37,17-Jan-2021 22:38:37,31.17820,-120.91636,093.3 080.0,093.3,080.0,470.000,473.808,,6.1525,,6.1479,,6.1502,34.2846,,34.2904,34.2781,,34.2801,34.2853,0.3208,,0.3356,0.3179,0.3257,,0.3439,0.3226,0.3203,13.952,14.8652,13.9159,14.163,15.9673,14.1184,14.0172,0.0318,,,, ,, , ,26.9733,,26.9687,,0.6744,84.4845,,,,2.0236E+00,,1.0000E-12,,6.1108,6.1062,0.9146,114.131,4.638,4.708,,,,,,,,,,,,
CalCOFI,2101RL,013,,2101_013u,18-Jan-2021 06:38:38,17-Jan-2021 22:38:38,31.17820,-120.91636,093.3 080.0,093.3,080.0,469.000,472.799,,6.1550,,6.1624,,6.1587,34.2852,,34.2910,34.2802,,34.2822,34.2866,0.3208,,0.3356,0.3179,0.3283,,0.3467,0.3254,0.3217,13.950,14.8631,13.9138,14.277,15.9650,14.2393,14.0766,0.0322,,,, ,, , ,26.9734,,26.9685,,0.6745,84.4815,,,,2.1789E+00,,1.0000E-12,,6.1134,6.1208,0.9146,114.105,4.638,4.747,,,,,,,,,,,,
CalCOFI,2101RL,013,,2101_013u,18-Jan-2021 06:38:39,17-Jan-2021 22:38:39,31.17818,-120.91636,093.3 080.0,093.3,080.0,468.000,471.789,,6.1659,,6.1678,,6.1669,34.2856,,34.2914,34.2796,,34.2816,34.2865,0.3206,,0.3354,0.3177,0.3263,,0.3446,0.3232,0.3205,13.944,14.8568,13.9075,14.189,15.9584,14.1460,14.0268,0.0327,,,, ,, , ,26.9723,,26.9673,,0.6750,84.4724,,,,1.8504E+00,,1.0000E-12,,6.1243,6.1262,0.9146,114.203,4.637,4.719,,,,,,,,,,,,
CalCOFI,2101RL,013,,2101_013u,18-Jan-2021 06:38:40,17-Jan-2021 22:38:40,31.17818,-120.91636,093.3 080.0,093.3,080.0,467.000,470.780,,6.1591,,6.1641,,6.1616,34.2830,,34.2888,34.2784,,34.2804,34.2846,0.3258,,0.3409,0.3232,0.3305,,0.3490,0.3277,0.3255,14.169,15.0923,14.1445,14.371,16.2086,14.3390,14.2418,0.0330,,,, ,, , ,26.9711,,26.9668,,0.6747,84.4782,,,,1.8474E+00,,1.0000E-12,,6.1176,6.1227,0.9146,114.294,4.711,4.779,,,,,,,,,,,,